Weather History for Menominee, MI

Change the Weather History Date:

Sunday, March 31, 2013

  Actual Average Record
Temperature  
Mean Temperature 35 °F -  
Max Temperature 44 °F 47 °F 70 °F (1967)
Min Temperature 26 °F 28 °F 6 °F (1969)
Degree Days  
Heating Degree Days 30    
Moisture  
Dew Point 28 °F    
Average Humidity 76    
Maximum Humidity 100    
Minimum Humidity 36    
Precipitation  
Precipitation 0.01 in - - ()
Sea Level Pressure  
Sea Level Pressure 29.69 in    
Wind  
Wind Speed 7 mph (WNW)    
Max Wind Speed 21 mph    
Max Gust Speed 32 mph    
Visibility 7 miles    
Events      
Averages and records for this station are not official NWS values.
T = Trace of Precipitation, MM = Missing Value Source: NWS Daily Summary

Daily Weather History Graph

Daily Weather History Graph

Search for Another Location

Airport:

Trip Planner

Search our weather history database for the weather conditions in past years. The results will help you decide how hot, cold, wet, or windy it might be!

Date:

Astronomy

Mar. 31, 2013 Rise Set
Actual Time 6:32 AM CDT 7:17 PM CDT
Civil Twilight 6:02 AM CDT 7:47 PM CDT
Nautical Twilight 5:27 AM CDT 8:22 PM CDT
Astronomical Twilight 4:50 AM CDT 8:59 PM CDT
Moon No Moon Rise 9:08 AM CDT (3/31)
Length of Visible Light 13h 44m
Length of Day
12h 45m
Waning Gibbous, 77% of the Moon is Illuminated
Mar 31
Waning Gibbous
Apr 2
Last Quarter
Apr 10
New
Apr 18
First Quarter
Apr 25
Full

Hourly Weather History & Observations

Time (CDT) Temp. Windchill Dew Point Humidity Pressure Visibility Wind Dir Wind Speed Gust Speed Precip Events Conditions
12:15 AM 37.4 °F 34.9 °F 35.6 °F 93% 29.75 in 1.5 mi West 3.5 mph - N/A   Mostly Cloudy
12:35 AM 35.6 °F 31.7 °F 35.6 °F 100% 29.74 in 1.8 mi West 4.6 mph - N/A   Clear
12:55 AM 35.6 °F 32.8 °F 35.6 °F 100% 29.74 in 1.5 mi West 3.5 mph - N/A   Clear
1:15 AM 37.4 °F 33.8 °F 35.6 °F 93% 29.73 in 2.0 mi West 4.6 mph - N/A   Clear
1:55 AM 35.6 °F 31.7 °F 35.6 °F 100% 29.72 in 2.0 mi West 4.6 mph - N/A   Clear
2:15 AM 35.6 °F 31.7 °F 33.8 °F 93% 29.72 in 2.5 mi West 4.6 mph - N/A   Clear
2:35 AM 35.6 °F 31.7 °F 33.8 °F 93% 29.71 in 3.0 mi West 4.6 mph - N/A   Clear
2:55 AM 35.6 °F 31.7 °F 35.6 °F 100% 29.70 in 3.0 mi WSW 4.6 mph - N/A   Clear
3:15 AM 35.6 °F 30.7 °F 33.8 °F 93% 29.69 in 3.0 mi WSW 5.8 mph - N/A   Clear
3:35 AM 35.6 °F 31.7 °F 33.8 °F 93% 29.69 in 3.0 mi West 4.6 mph - N/A   Clear
3:55 AM 37.4 °F - 33.8 °F 87% 29.68 in 2.5 mi Calm Calm - N/A   Clear
4:15 AM 33.8 °F 29.6 °F 33.8 °F 100% 29.68 in 2.5 mi West 4.6 mph - N/A   Clear
4:35 AM 35.6 °F 31.7 °F 33.8 °F 93% 29.67 in 2.0 mi West 4.6 mph - N/A   Scattered Clouds
4:55 AM 33.8 °F 29.6 °F 32.0 °F 93% 29.67 in 1.8 mi West 4.6 mph - N/A   Overcast
5:15 AM 32.0 °F 27.5 °F 32.0 °F 100% 29.67 in 2.0 mi West 4.6 mph - N/A   Mostly Cloudy
5:35 AM 32.0 °F 27.5 °F 32.0 °F 100% 29.67 in 2.5 mi West 4.6 mph - N/A   Mostly Cloudy
5:55 AM 30.2 °F 25.4 °F 30.2 °F 100% 29.67 in 3.0 mi West 4.6 mph - N/A   Overcast
6:15 AM 32.0 °F 27.5 °F 32.0 °F 100% 29.66 in 3.0 mi West 4.6 mph - N/A   Mostly Cloudy
6:35 AM 30.2 °F 26.7 °F 30.2 °F 100% 29.65 in 1.8 mi West 3.5 mph - N/A   Mostly Cloudy
6:55 AM 32.0 °F 27.5 °F 32.0 °F 100% 29.65 in 1.5 mi West 4.6 mph - N/A   Mostly Cloudy
7:15 AM 33.8 °F 28.6 °F 32.0 °F 93% 29.65 in 1.8 mi WSW 5.8 mph - N/A   Scattered Clouds
7:35 AM 33.8 °F 29.6 °F 33.8 °F 100% 29.65 in 2.0 mi West 4.6 mph - N/A   Mostly Cloudy
7:55 AM 33.8 °F 27.7 °F 32.0 °F 93% 29.65 in 2.5 mi WSW 6.9 mph - N/A   Overcast
8:15 AM 35.6 °F 29.2 °F 35.6 °F 100% 29.65 in 2.5 mi West 8.1 mph - N/A   Overcast
8:35 AM 35.6 °F 28.0 °F 33.8 °F 93% 29.65 in 3.0 mi West 10.4 mph 18.4 mph N/A   Overcast
8:55 AM 33.8 °F 27.7 °F 32.0 °F 93% 29.64 in 3.0 mi West 6.9 mph - N/A   Overcast
9:15 AM 35.6 °F 29.9 °F 33.8 °F 93% 29.64 in 5.0 mi West 6.9 mph - N/A   Overcast
9:35 AM 35.6 °F 29.2 °F 35.6 °F 100% 29.63 in 6.0 mi West 8.1 mph - N/A   Overcast
9:55 AM 37.4 °F 30.8 °F 33.8 °F 87% 29.63 in 8.0 mi West 9.2 mph 16.1 mph N/A   Scattered Clouds
10:15 AM 37.4 °F 33.8 °F 33.8 °F 87% 29.63 in 9.0 mi West 4.6 mph 19.6 mph N/A   Partly Cloudy
10:35 AM 39.2 °F 33.0 °F 35.6 °F 87% 29.62 in 10.0 mi WNW 9.2 mph 17.3 mph N/A   Clear
10:55 AM 41.0 °F 35.2 °F 33.8 °F 76% 29.62 in 10.0 mi West 9.2 mph - N/A   Clear
11:15 AM 41.0 °F 35.8 °F 33.8 °F 76% 29.61 in 10.0 mi West 8.1 mph - N/A   Clear
11:35 AM 42.8 °F 36.6 °F 33.8 °F 70% 29.61 in 10.0 mi West 11.5 mph 17.3 mph N/A   Clear
11:55 AM 42.8 °F 38.6 °F 33.8 °F 70% 29.60 in 10.0 mi WSW 6.9 mph - N/A   Clear
12:15 PM 44.6 °F 38.8 °F 35.6 °F 71% 29.60 in 10.0 mi SW 11.5 mph 17.3 mph N/A   Clear
12:35 PM 44.6 °F 39.7 °F 33.8 °F 66% 29.60 in 10.0 mi WSW 9.2 mph 16.1 mph N/A   Mostly Cloudy
12:55 PM 44.6 °F 39.2 °F 32.0 °F 61% 29.59 in 10.0 mi West 10.4 mph 19.6 mph N/A   Overcast
1:15 PM 42.8 °F 37.5 °F 30.2 °F 61% 29.60 in 9.0 mi WNW 9.2 mph 17.3 mph N/A   Overcast
1:35 PM 42.8 °F 35.4 °F 28.4 °F 57% 29.61 in 10.0 mi WNW 15.0 mph 19.6 mph N/A   Overcast
1:55 PM 39.2 °F 31.2 °F 32.0 °F 75% 29.62 in 10.0 mi WNW 13.8 mph 24.2 mph N/A   Overcast
2:15 PM 41.0 °F 37.1 °F 30.2 °F 65% 29.61 in 10.0 mi WNW 5.8 mph 20.7 mph N/A   Overcast
2:35 PM 42.8 °F 36.2 °F 30.2 °F 61% 29.61 in 10.0 mi West 12.7 mph 20.7 mph N/A   Overcast
2:55 PM 37.4 °F 28.9 °F 30.2 °F 75% 29.63 in 10.0 mi WNW 13.8 mph 23.0 mph N/A   Overcast
3:15 PM 39.2 °F 32.5 °F 28.4 °F 65% 29.63 in 10.0 mi West 10.4 mph 16.1 mph N/A   Mostly Cloudy
3:35 PM 39.2 °F 30.5 °F 28.4 °F 65% 29.64 in 10.0 mi NNW 16.1 mph 26.5 mph N/A   Overcast
3:55 PM 35.6 °F 29.2 °F 30.2 °F 81% 29.64 in 9.0 mi NNW 8.1 mph 17.3 mph N/A   Overcast
4:15 PM 37.4 °F 33.8 °F 30.2 °F 75% 29.65 in 10.0 mi NW 4.6 mph - N/A   Mostly Cloudy
4:35 PM 39.2 °F 33.0 °F 26.6 °F 61% 29.65 in 10.0 mi NNW 9.2 mph 17.3 mph N/A   Mostly Cloudy
4:55 PM 39.2 °F 32.0 °F 23.0 °F 52% 29.65 in 10.0 mi NW 11.5 mph 18.4 mph N/A   Overcast
5:15 PM 39.2 °F 32.5 °F 17.6 °F 42% 29.66 in 10.0 mi NNW 10.4 mph 18.4 mph N/A   Overcast
5:35 PM 39.2 °F 29.8 °F 17.6 °F 42% 29.67 in 10.0 mi NNW 18.4 mph 24.2 mph N/A   Overcast
5:55 PM 39.2 °F 31.2 °F 14.0 °F 36% 29.68 in 10.0 mi NNW 13.8 mph 24.2 mph N/A   Scattered Clouds
6:15 PM 37.4 °F 26.9 °F 14.0 °F 38% 29.70 in 10.0 mi North 20.7 mph 32.2 mph N/A   Mostly Cloudy
6:35 PM 35.6 °F 24.8 °F 17.6 °F 48% 29.72 in 10.0 mi NNW 19.6 mph 31.1 mph N/A   Overcast
6:55 PM 35.6 °F 24.5 °F 15.8 °F 44% 29.74 in 10.0 mi NNW 20.7 mph 29.9 mph N/A   Mostly Cloudy
7:15 PM 33.8 °F 23.5 °F 10.4 °F 38% 29.75 in 10.0 mi NNW 16.1 mph 32.2 mph N/A   Mostly Cloudy
7:35 PM 33.8 °F 24.3 °F 12.2 °F 41% 29.77 in 10.0 mi North 13.8 mph 21.9 mph N/A   Partly Cloudy
8:15 PM 30.2 °F 21.3 °F 17.6 °F 60% 29.80 in 10.0 mi NNW 10.4 mph 21.9 mph N/A   Clear
8:35 PM 30.2 °F 21.3 °F 17.6 °F 60% 29.81 in 10.0 mi NNW 10.4 mph - N/A   Partly Cloudy
8:55 PM 30.2 °F 21.9 °F 17.6 °F 60% 29.82 in 10.0 mi NNW 9.2 mph - N/A   Mostly Cloudy
9:15 PM 30.2 °F 19.8 °F 17.6 °F 60% 29.83 in 10.0 mi NNW 13.8 mph 19.6 mph N/A   Partly Cloudy
9:35 PM 28.4 °F 17.0 °F 15.8 °F 59% 29.84 in 10.0 mi NNW 15.0 mph 21.9 mph N/A   Clear
9:55 PM 28.4 °F 18.0 °F 17.6 °F 64% 29.84 in 10.0 mi North 12.7 mph 17.3 mph N/A   Clear
10:15 PM 28.4 °F 19.7 °F 17.6 °F 64% 29.85 in 10.0 mi NNW 9.2 mph - N/A   Clear
10:35 PM 28.4 °F 22.2 °F 17.6 °F 64% 29.85 in 10.0 mi NNW 5.8 mph - N/A   Clear
10:55 PM 26.6 °F 21.2 °F 17.6 °F 69% 29.85 in 10.0 mi NNW 4.6 mph - N/A   Clear
11:15 PM 26.6 °F 21.2 °F 15.8 °F 64% 29.86 in 10.0 mi NNW 4.6 mph - N/A   Partly Cloudy
11:35 PM 26.6 °F 20.0 °F 17.6 °F 69% 29.86 in 10.0 mi NNW 5.8 mph - N/A   Scattered Clouds
11:55 PM 26.6 °F 18.2 °F 15.8 °F 64% 29.86 in 10.0 mi NNW 8.1 mph - N/A   Clear